Date String (YYYY-MM-DD hh:mm:ss) UTC,Instrument flags,Ambient pressure (hPa),Sample flow (lpm),Bypass flow (lpm),Sample temperature (°C),Ambient temperature (°C),ASC tube jacket temperature (°C),LED temperature (°C),Box temperature (°C),Sample RH (%),Span deviation,Mass concentration (μg/m³),Mass concentration (μg/m³),Mass concentration (μg/m³)
DateTimeUTC,F1_M11,P_M11,Q1_M11,Q2_M11,T1_M11,T2_M11,T3_M11,T4_M11,T5_M11,U1_M11,ZSPAN_M11,X0_M11,X2_M11,X1_M11
2022-07-09 01:00:00,,0831.3,5.01,0.00,29.5,27.6,00.0,38.0,31.3,20.5,0000.0,0011.67,0003.30,0001.87
2022-07-09 01:01:00,,0831.3,4.99,0.00,29.4,27.1,00.0,38.0,31.2,20.5,0000.0,0011.53,0003.29,0001.87
2022-07-09 01:02:00,,0831.4,5.00,0.00,29.4,27.1,00.0,38.0,31.2,20.5,0000.0,0011.59,0003.26,0001.86
2022-07-09 01:03:00,,0831.4,5.01,0.00,29.3,27.2,00.0,38.0,31.1,20.5,0000.0,0012.12,0003.26,0001.86
2022-07-09 01:04:00,,0831.3,5.01,0.00,29.3,27.4,00.0,38.0,31.1,20.5,0000.0,0012.73,0003.28,0001.85
2022-07-09 01:05:00,,0831.4,5.00,0.00,29.3,27.6,00.0,38.0,31.2,20.6,0000.0,0013.12,0003.26,0001.86
2022-07-09 01:06:00,,0831.4,5.02,0.00,29.3,27.8,00.0,38.0,31.2,20.6,0000.0,0012.28,0003.26,0001.86
2022-07-09 01:07:00,,0831.4,4.99,0.00,29.4,28.0,00.0,38.0,31.3,20.8,0000.0,0012.40,0003.27,0001.87
2022-07-09 01:08:00,,0831.4,5.00,0.00,29.4,28.2,00.0,38.0,31.4,20.8,0000.0,0012.60,0003.30,0001.87
2022-07-09 01:09:00,,0831.5,5.00,0.00,29.5,28.4,00.0,38.1,31.4,21.2,0000.0,0013.23,0003.29,0001.88
2022-07-09 01:10:00,,0831.3,5.01,0.00,29.5,28.2,00.0,38.1,31.4,21.4,0000.0,0013.27,0003.32,0001.89
2022-07-09 01:11:00,,0831.3,5.00,0.00,29.5,27.5,00.0,38.0,31.3,22.2,0000.0,0014.05,0003.39,0001.90
2022-07-09 01:12:00,,0831.3,5.00,0.00,29.4,27.1,00.0,38.0,31.2,22.1,0000.0,0015.06,0003.39,0001.93
2022-07-09 01:13:00,,0831.3,5.00,0.00,29.4,27.2,00.0,38.0,31.1,21.9,0000.0,0014.60,0003.40,0001.95
2022-07-09 01:14:00,,0831.3,5.00,0.00,29.3,27.3,00.0,38.0,31.1,22.4,0000.0,0014.30,0003.38,0001.95
2022-07-09 01:15:00,,0831.3,5.01,0.00,29.3,27.5,00.0,38.0,31.1,23.2,0000.0,0014.66,0003.39,0001.97
2022-07-09 01:16:00,,0831.3,5.00,0.00,29.3,27.7,00.0,38.0,31.2,23.4,0000.0,0013.89,0003.38,0002.01
2022-07-09 01:17:00,,0831.3,5.00,0.00,29.4,27.9,00.0,38.0,31.3,23.7,0000.0,0014.11,0003.37,0002.03
2022-07-09 01:18:00,,0831.4,5.01,0.00,29.4,28.1,00.0,38.0,31.4,23.8,0000.0,0013.52,0003.37,0002.06
2022-07-09 01:19:00,,0831.4,5.01,0.00,29.4,28.3,00.0,38.1,31.4,23.8,0000.0,0013.43,0003.41,0002.10
2022-07-09 01:20:00,,0831.5,5.01,0.00,29.5,28.4,00.0,38.1,31.5,23.9,0000.0,0012.67,0003.44,0002.13
2022-07-09 01:21:00,,0831.4,5.01,0.00,29.5,28.0,00.0,38.1,31.4,24.1,0000.0,0012.05,0003.41,0002.15
2022-07-09 01:22:00,,0831.5,5.01,0.00,29.4,27.3,00.0,38.0,31.2,24.4,0000.0,0011.81,0003.42,0002.18
2022-07-09 01:23:00,,0831.5,5.00,0.00,29.4,27.1,00.0,38.0,31.2,24.2,0000.0,0010.81,0003.48,0002.21
2022-07-09 01:24:00,,0831.5,5.00,0.00,29.3,27.2,00.0,38.0,31.1,24.3,0000.0,0010.74,0003.49,0002.23
2022-07-09 01:25:00,,0831.5,5.02,0.00,29.3,27.3,00.0,38.0,31.1,24.5,0000.0,0010.51,0003.54,0002.26
2022-07-09 01:26:00,,0831.5,5.00,0.00,29.3,27.5,00.0,38.0,31.1,24.4,0000.0,0009.88,0003.52,0002.29
2022-07-09 01:27:00,,0831.5,5.00,0.00,29.3,27.7,00.0,38.0,31.2,24.6,0000.0,0010.11,0003.53,0002.31
2022-07-09 01:28:00,,0831.5,5.00,0.00,29.4,28.0,00.0,38.0,31.3,24.5,0000.0,0009.74,0003.54,0002.32
2022-07-09 01:29:00,,0831.5,5.00,0.00,29.4,28.1,00.0,38.1,31.4,24.7,0000.0,0009.55,0003.55,0002.33
2022-07-09 01:30:00,,0831.6,5.00,0.00,29.5,28.3,00.0,38.1,31.4,24.9,0000.0,0009.41,0003.54,0002.35
2022-07-09 01:31:00,,0831.6,5.00,0.00,29.5,28.3,00.0,38.1,31.5,25.0,0000.0,0010.61,0003.53,0002.37
2022-07-09 01:32:00,,0831.6,5.00,0.00,29.5,27.7,00.0,38.1,31.4,25.2,0000.0,0012.10,0003.58,0002.40
2022-07-09 01:33:00,,0831.6,5.00,0.00,29.4,27.1,00.0,38.0,31.2,25.4,0000.0,0012.33,0003.59,0002.40
2022-07-09 01:34:00,,0831.6,5.01,0.00,29.4,27.1,00.0,38.0,31.2,25.9,0000.0,0013.06,0003.54,0002.42
2022-07-09 01:35:00,,0831.6,5.01,0.00,29.3,27.2,00.0,38.0,31.1,26.1,0000.0,0013.61,0003.56,0002.44
2022-07-09 01:36:00,,0831.5,5.01,0.00,29.3,27.4,00.0,38.0,31.1,26.2,0000.0,0014.58,0003.53,0002.47
2022-07-09 01:37:00,,0831.5,5.00,0.00,29.3,27.6,00.0,38.0,31.1,26.8,0000.0,0015.06,0003.56,0002.49
2022-07-09 01:38:00,,0831.5,5.00,0.00,29.3,27.8,00.0,38.0,31.2,26.8,0000.0,0014.98,0003.64,0002.52
2022-07-09 01:39:00,,0831.5,5.00,0.00,29.4,28.0,00.0,38.1,31.3,26.9,0000.0,0015.65,0003.73,0002.56
2022-07-09 01:40:00,,0831.5,5.02,0.00,29.4,28.2,00.0,38.1,31.4,27.0,0000.0,0016.82,0003.80,0002.62
2022-07-09 01:41:00,,0831.5,5.00,0.00,29.5,28.3,00.0,38.1,31.4,26.9,0000.0,0016.84,0003.82,0002.65
2022-07-09 01:42:00,,0831.5,5.00,0.00,29.5,28.4,00.0,38.1,31.5,26.6,0000.0,0016.06,0003.90,0002.71
2022-07-09 01:43:00,,0831.5,5.01,0.00,29.5,27.8,00.0,38.1,31.4,26.7,0000.0,0015.11,0003.98,0002.76
2022-07-09 01:44:00,,0831.5,5.00,0.00,29.4,27.2,00.0,38.0,31.3,26.8,0000.0,0015.02,0004.01,0002.81
2022-07-09 01:45:00,,0831.6,4.99,0.00,29.4,27.1,00.0,38.0,31.2,27.0,0000.0,0014.30,0004.04,0002.85
2022-07-09 01:46:00,,0831.6,4.99,0.00,29.3,27.1,00.0,38.0,31.1,26.9,0000.0,0014.12,0004.04,0002.88
2022-07-09 01:47:00,,0831.6,5.00,0.00,29.3,27.3,00.0,38.0,31.1,26.9,0000.0,0013.45,0004.10,0002.91
2022-07-09 01:48:00,,0831.6,5.01,0.00,29.3,27.5,00.0,38.0,31.1,27.1,0000.0,0012.53,0004.14,0002.94
2022-07-09 01:49:00,,0831.7,5.00,0.00,29.3,27.7,00.0,38.0,31.2,27.2,0000.0,0012.77,0004.15,0002.95
2022-07-09 01:50:00,,0831.7,5.00,0.00,29.4,27.9,00.0,38.0,31.3,27.3,0000.0,0012.51,0004.10,0002.95
2022-07-09 01:51:00,,0831.7,5.00,0.00,29.4,28.1,00.0,38.1,31.3,27.2,0000.0,0011.51,0004.02,0002.92
2022-07-09 01:52:00,,0831.7,5.01,0.00,29.5,28.3,00.0,38.1,31.4,27.3,0000.0,0011.36,0003.98,0002.91
2022-07-09 01:53:00,,0831.6,4.99,0.00,29.5,28.4,00.0,38.1,31.5,27.4,0000.0,0011.16,0003.91,0002.88
2022-07-09 01:54:00,,0831.7,5.00,0.00,29.5,28.0,00.0,38.1,31.4,27.4,0000.0,0010.95,0003.86,0002.85
2022-07-09 01:55:00,,0831.7,5.00,0.00,29.5,27.4,00.0,38.0,31.3,27.6,0000.0,0011.48,0003.86,0002.81
2022-07-09 01:56:00,,0831.6,5.00,0.00,29.4,27.1,00.0,38.0,31.2,27.9,0000.0,0011.43,0003.85,0002.80
2022-07-09 01:57:00,,0831.6,5.00,0.00,29.4,27.2,00.0,38.0,31.1,28.0,0000.0,0010.94,0003.84,0002.76
2022-07-09 01:58:00,,0831.7,5.00,0.00,29.3,27.3,00.0,38.0,31.0,28.1,0000.0,0011.00,0003.85,0002.75
2022-07-09 01:59:00,,0831.6,5.00,0.00,29.3,27.5,00.0,38.0,31.1,28.1,0000.0,0011.39,0003.86,0002.74
